CW9669 Weather Reports


time (UTC)temp
C
wind
direction
speed
KPH
gust
KPH
rain 1hr
cm
rain 24hr
cm
rain mn
cm
humidity
%
barometer
mb
20260508104859 8 319 0.0 3.2 0.00 0.00 0.00 86 1018.1
20260508103900 8 327 0.0 3.2 0.00 0.00 0.00 86 1017.9
20260508102900 8 318 0.0 3.2 0.00 0.00 0.00 87 1017.9
20260508101857 8 317 0.0 0.0 0.00 0.00 0.00 87 1017.8
20260508100856 8 317 0.0 0.0 0.00 0.00 0.00 86 1017.7
20260508100333 9 317 0.0 1.6 0.00 0.00 0.00 86 1017.5
20260508094857 9 311 0.0 1.6 0.00 0.00 0.00 87 1017.3
20260508093855 9 139 0.0 0.0 0.00 0.00 0.00 86 1017.3
20260508093350 9 139 0.0 0.0 0.00 0.00 0.00 86 1017.3
20260508091855 10 139 0.0 1.6 0.00 0.00 0.00 86 1017.3
20260508090851 10 153 0.0 0.0 0.00 0.00 0.00 86 1017.0
20260508085853 10 153 0.0 0.0 0.00 0.00 0.00 85 1017.1
20260508084849 10 153 0.0 0.0 0.00 0.00 0.00 84 1017.0
20260508083848 10 153 0.0 0.0 0.00 0.00 0.00 84 1016.9
20260508082846 11 153 0.0 0.0 0.00 0.00 0.00 83 1016.8
20260508082337 11 153 0.0 0.0 0.00 0.00 0.00 82 1016.6
20260508080847 11 153 0.0 0.0 0.00 0.00 0.00 82 1016.6
20260508075846 11 153 0.0 0.0 0.00 0.00 0.00 81 1016.6
20260508074848 11 153 0.0 0.0 0.00 0.00 0.00 80 1016.6
20260508073847 11 153 0.0 0.0 0.00 0.00 0.00 78 1016.4
20260508072848 11 153 0.0 0.0 0.00 0.00 0.00 76 1016.4
20260508071845 12 153 0.0 0.0 0.00 0.00 0.00 75 1016.3
20260508071141 12 153 0.0 0.0 0.00 0.00 0.00 72 1016.1
20260508065847 12 153 0.0 0.0 0.00 0.00 0.00 69 1016.1
20260508064846 13 153 0.0 0.0 0.00 0.00 0.00 67 1016.1
20260508064325 13 153 0.0 0.0 0.00 0.00 0.00 65 1016.1
20260508062844 13 153 0.0 0.0 0.00 0.00 0.00 64 1016.1
20260508062315 13 153 0.0 0.0 0.00 0.00 0.00 63 1016.1
20260508060839 14 155 0.0 0.0 0.00 0.00 0.00 61 1016.1
20260508060318 14 154 0.0 0.0 0.00 0.00 0.00 59 1016.0
20260508054838 15 155 0.0 0.0 0.00 0.00 0.00 58 1016.0
20260508053841 15 325 0.0 0.0 0.00 0.00 0.00 58 1016.0
20260508053802 16 325 0.0 3.2 0.00 0.00 0.00 56 1016.0
20260508051837 16 299 1.6 9.7 0.00 0.00 0.00 55 1015.8
20260508050840 16 253 1.6 6.4 0.00 0.00 0.00 57 1015.9
20260508045837 17 292 1.6 8.0 0.00 0.00 0.00 58 1015.8
20260508044836 17 253 1.6 8.0 0.00 0.00 0.00 58 1015.6
20260508043837 17 311 1.6 6.4 0.00 0.00 0.00 58 1015.6
20260508042835 17 298 0.0 6.4 0.00 0.00 0.00 58 1015.4
20260508041836 18 298 1.6 4.8 0.00 0.00 0.00 59 1015.3
20260508040836 18 302 1.6 8.0 0.00 0.00 0.00 61 1015.1
20260508035835 18 322 0.0 1.6 0.00 0.00 0.00 64 1015.0
20260508035319 18 314 1.6 3.2 0.00 0.00 0.00 61 1014.8
20260508033836 18 291 0.0 3.2 0.00 0.00 0.00 62 1014.4
20260508032836 18 67 0.0 0.0 0.00 0.00 0.00 60 1014.2
20260508031834 19 67 0.0 0.0 0.00 0.00 0.00 57 1014.1
20260508031324 20 67 0.0 0.0 0.00 0.00 0.00 57 1014.0
20260508025838 20 67 0.0 0.0 0.00 0.00 0.00 52 1014.0
20260508024833 21 67 0.0 0.0 0.00 0.00 0.00 50 1014.0
20260508023834 21 67 0.0 0.0 0.00 0.00 0.00 48 1014.0
20260508023313 22 67 0.0 1.6 0.00 0.00 0.00 47 1014.0
20260508021829 22 67 0.0 1.6 0.00 0.00 0.00 45 1014.0
20260508020835 22 67 0.0 3.2 0.00 0.00 0.00 43 1014.1
20260508015832 23 82 0.0 0.0 0.00 0.00 0.00 44 1014.1
20260508014830 23 82 0.0 3.2 0.00 0.00 0.00 43 1014.1
20260508013831 23 298 1.6 4.8 0.00 0.00 0.00 43 1014.3
20260508012830 23 324 1.6 4.8 0.00 0.00 0.00 44 1014.4
20260508012311 23 302 1.6 4.8 0.00 0.00 0.00 44 1014.5
20260508010829 23 77 0.0 4.8 0.00 0.00 0.00 45 1014.5
20260508005829 23 108 1.6 8.0 0.00 0.00 0.00 45 1014.8
20260508005330 22 321 4.8 9.7 0.00 0.00 0.00 45 1014.9
20260508003829 23 290 1.6 6.4 0.00 0.00 0.00 44 1015.0
20260508002829 23 336 0.0 4.8 0.00 0.00 0.00 43 1015.0
20260508001829 22 290 1.6 6.4 0.00 0.00 0.00 45 1015.0
20260508000829 22 304 1.6 6.4 0.00 0.00 0.00 46 1015.2
20260508000306 22 300 1.6 6.4 0.00 0.00 0.00 47 1015.2
20260507235807 22 333 3.2 9.7 0.00 0.00 0.00 50 1015.4
20260507233829 22 284 1.6 9.7 0.00 0.00 0.00 53 1015.3
20260507233312 22 271 1.6 9.7 0.00 0.00 0.00 53 1015.3
20260507231829 22 290 3.2 12.9 0.00 0.00 0.00 54 1015.5
20260507230827 22 281 1.6 4.8 0.00 0.00 0.00 56 1015.6
20260507225829 21 296 3.2 14.5 0.00 0.00 0.00 58 1015.7
20260507224827 21 344 3.2 9.7 0.00 0.00 0.00 56 1015.8
20260507223832 21 289 1.6 6.4 0.00 0.00 0.00 58 1015.9
20260507222828 20 285 3.2 12.9 0.00 0.00 0.00 60 1016.1
20260507222309 20 288 3.2 8.0 0.00 0.00 0.00 59 1016.2
20260507220828 20 225 1.6 6.4 0.00 0.00 0.00 61 1016.2
20260507215827 20 306 3.2 9.7 0.00 0.00 0.00 62 1016.4
20260507214827 20 146 3.2 12.9 0.00 0.00 0.00 61 1016.5
20260507213828 19 302 1.6 12.9 0.00 0.00 0.00 63 1016.6
20260507212827 19 51 3.2 9.7 0.00 0.00 0.00 65 1016.7
20260507211823 18 269 4.8 14.5 0.00 0.00 0.00 65 1016.8
20260507210823 18 292 1.6 12.9 0.00 0.00 0.00 65 1016.9
20260507205823 18 304 1.6 6.4 0.00 0.00 0.00 66 1017.1
20260507204820 17 245 3.2 14.5 0.00 0.00 0.00 67 1017.3
20260507203820 17 24 3.2 17.7 0.00 0.00 0.00 69 1017.3
20260507202811 17 296 3.2 14.5 0.00 0.00 0.00 70 1017.5
20260507201812 17 50 3.2 9.7 0.00 0.00 0.00 69 1017.8
20260507201253 16 299 3.2 11.3 0.00 0.00 0.00 72 1017.8
20260507200244 16 303 1.6 4.8 0.00 0.00 0.00 72 1018.0
20260507195248 16 299 3.2 9.7 0.00 0.00 0.00 73 1017.9
20260507193812 16 294 3.2 9.7 0.00 0.00 0.00 73 1018.0
20260507192812 16 269 1.6 4.8 0.00 0.00 0.00 73 1018.0
20260507191809 15 78 3.2 4.8 0.00 0.00 0.00 75 1018.2
20260507190809 15 320 1.6 6.4 0.00 0.00 0.00 74 1018.3
20260507190301 15 282 1.6 4.8 0.00 0.00 0.00 75 1018.4
20260507184808 15 311 1.6 3.2 0.00 0.00 0.00 76 1018.5
20260507183807 15 307 1.6 4.8 0.00 0.00 0.00 76 1018.4
20260507182810 15 197 0.0 6.4 0.00 0.00 0.00 76 1018.4
20260507181807 15 55 0.0 1.6 0.00 0.00 0.00 78 1018.4
20260507180809 15 293 0.0 3.2 0.00 0.00 0.00 79 1018.5
20260507175804 14 209 0.0 3.2 0.00 0.00 0.00 80 1018.5
20260507174805 13 281 1.6 4.8 0.00 0.00 0.00 81 1018.6
20260507173805 13 49 1.6 4.8 0.00 0.00 0.00 82 1018.6
20260507172804 13 292 0.0 3.2 0.00 0.00 0.00 82 1018.7
20260507171808 13 284 0.0 3.2 0.00 0.00 0.00 83 1018.7
20260507170803 13 290 0.0 3.2 0.00 0.00 0.00 83 1018.7
20260507165802 13 304 0.0 4.8 0.00 0.00 0.00 85 1018.7
20260507164801 12 295 1.6 4.8 0.00 0.00 0.00 85 1018.7
20260507163802 12 343 0.0 3.2 0.00 0.00 0.00 86 1018.7
20260507162801 12 307 0.0 4.8 0.00 0.00 0.00 87 1018.8
20260507161801 12 334 0.0 3.2 0.00 0.00 0.00 87 1018.8
20260507160801 11 25 1.6 6.4 0.00 0.00 0.00 88 1018.9
20260507160254 11 286 0.0 4.8 0.00 0.00 0.00 88 1018.9
20260507154801 11 295 1.6 3.2 0.00 0.00 0.00 88 1019.0
20260507153803 11 295 1.6 4.8 0.00 0.00 0.00 88 1019.0
20260507153243 11 321 1.6 4.8 0.00 0.00 0.00 89 1019.1
20260507151802 11 306 1.6 3.2 0.00 0.00 0.00 89 1019.0
20260507150801 11 346 1.6 4.8 0.00 0.00 0.00 90 1019.0
20260507150725 11 296 0.0 3.2 0.00 0.00 0.00 90 1019.0
20260507144800 11 286 0.0 3.2 0.00 0.00 0.00 91 1019.0
20260507143759 11 327 0.0 3.2 0.00 0.00 0.00 90 1018.9
20260507143246 11 282 0.0 1.6 0.00 0.00 0.00 90 1018.9
20260507141801 11 293 0.0 1.6 0.00 0.00 0.00 90 1018.9
20260507141726 11 292 0.0 1.6 0.00 0.00 0.00 90 1018.7
20260507135801 11 285 0.0 0.0 0.00 0.00 0.00 90 1018.7
20260507134800 10 342 1.6 3.2 0.00 0.00 0.00 90 1018.7
20260507134247 10 290 0.0 1.6 0.00 0.00 0.00 90 1018.6
20260507132801 10 312 0.0 1.6 0.00 0.00 0.00 90 1018.7
20260507132233 10 332 1.6 3.2 0.00 0.00 0.00 90 1018.6
20260507131243 10 56 0.0 3.2 0.00 0.00 0.00 90 1018.7
20260507125756 10 298 1.6 3.2 0.00 0.00 0.00 90 1018.8
20260507124757 10 332 0.0 3.2 0.00 0.00 0.00 90 1018.8
20260507123757 11 336 0.0 1.6 0.00 0.00 0.00 90 1018.8
20260507122756 11 296 0.0 3.2 0.00 0.00 0.00 90 1018.9
20260507121757 11 329 1.6 4.8 0.00 0.00 0.00 89 1019.0
20260507120754 11 303 0.0 3.2 0.00 0.00 0.00 89 1019.0
20260507120239 11 325 0.0 1.6 0.00 0.00 0.00 89 1019.1
20260507115230 11 313 0.0 1.6 0.00 0.00 0.00 89 1019.1
20260507113748 11 317 1.6 3.2 0.00 0.00 0.00 89 1019.1
20260507113232 11 313 0.0 3.2 0.00 0.00 0.00 88 1019.2
20260507111747 11 329 0.0 4.8 0.00 0.00 0.00 88 1019.2
20260507110749 11 269 1.6 3.2 0.00 0.00 0.00 88 1019.3
20260507105746 11 292 0.0 1.6 0.00 0.00 0.00 88 1019.3